Flag for Russia Weather past 2 weeks in Ulyanovsk, Russia

Now
3 °F

Partly sunny.


Feels Like: -15 °F
Forecast: 5 / 14 °F
Wind: 15 mph from South

Location: Ulyanovsk

Current Time: Jan 27, 2015 at 6:28:14 PM

Latest Report: Jan 27, 2015 at 5:00 PM


Visibility: N/A

Pressure: 30.51 "Hg

Humidity: 66%

Dew point: -6 °F

Location of UlyanovskLocation

Historic Weather in Ulyanovsk — Graph

°F

Ulyanovsk temperature yesterday

Maximum temperature yesterday: 3 °F (at 12:00 PM)
Minimum temperature yesterday: -8 °F (at 12:00 AM)
Average temperature yesterday: -2 °F

Past Weeks' High & Low Weather Summary

 TemperatureHumidityPressure
High37 °F (Jan 14, 9:00 AM)100% (Jan 12, 5:00 PM)30.89 "Hg (Jan 12, 5:00 PM)
Low-13 °F (Jan 23, 2:00 AM)55% (Jan 27, 3:00 PM)29.47 "Hg (Jan 12, 5:00 PM)
Average15 °F84%30.27 "Hg
* Reported Jan 12 5:00 PM — Jan 27 5:00 PM, Ulyanovsk, Weather by CustomWeather, © 2014

Note: Actual official high and low records may vary slightly from our data, if they occured in-between our weather recording intervals... More about our weather records

Advertising

Ulyanovsk weather history for previous 24 hours

 ConditionsComfort  
Time TempWeatherWind HumidityBarometerVisibility
5:00 PM
Jan 27
3 °FPartly sunny.15 mph66%30.51 "HgN/A
4:00 PM3 °FPartly sunny.8 mph60%30.51 "Hg5 mi
3:00 PM5 °FPartly sunny.10 mph55%30.51 "Hg5 mi
2:00 PM5 °FPartly sunny.13 mph60%30.51 "Hg5 mi
1:00 PM3 °FPartly sunny.13 mph60%30.51 "Hg5 mi
12:00 PM3 °FPartly sunny.13 mph60%30.54 "Hg5 mi
11:00 AM1 °FPartly sunny.13 mph65%30.54 "Hg5 mi
10:00 AM0 °FOvercast.8 mph71%30.54 "Hg5 mi
9:00 AM-2 °FOvercast.13 mph77%30.54 "Hg5 mi
8:00 AM-4 °FPassing clouds.13 mph77%30.54 "Hg5 mi
7:00 AM-4 °FPassing clouds.10 mph77%30.57 "HgN/A
6:00 AM-2 °FPassing clouds.13 mph71%30.57 "HgN/A
5:00 AM-2 °FPassing clouds.10 mph71%30.57 "HgN/A
4:00 AM-2 °FPassing clouds.13 mph71%30.57 "HgN/A
3:00 AM0 °FPassing clouds.10 mph65%30.57 "HgN/A
2:00 AM0 °FPassing clouds.8 mph71%30.57 "HgN/A
1:00 AM0 °FPassing clouds.13 mph71%30.57 "HgN/A
12:00 AM-2 °FPassing clouds.13 mph77%30.60 "HgN/A
11:00 PM
Jan 26
-2 °FPassing clouds.10 mph77%30.60 "HgN/A
10:00 PM0 °FPassing clouds.13 mph71%30.60 "HgN/A
9:00 PM0 °FPassing clouds.13 mph71%30.60 "HgN/A
8:00 PM1 °FPassing clouds.13 mph71%30.63 "HgN/A
7:00 PM1 °FPassing clouds.13 mph65%30.63 "HgN/A
6:00 PM0 °FPassing clouds.10 mph71%30.63 "HgN/A
Weather by CustomWeather, © 2014

See weather overviewHow to use our weather pages